TimeEDT,TemperatureF,Dew PointF,Humidity,Sea Level PressureIn,VisibilityMPH,Wind Direction,Wind SpeedMPH,Gust SpeedMPH,PrecipitationIn,Events,Conditions,WindDirDegrees,DateUTC
12:15 AM,44.6,44.6,100,29.77,5.0,SSW,5.8,-,N/A,,Mostly Cloudy,210,2013-04-01 04:15:00
12:35 AM,44.6,44.6,100,29.78,7.0,SW,4.6,-,N/A,,Mostly Cloudy,220,2013-04-01 04:35:00
12:55 AM,44.6,44.6,100,29.77,10.0,SSW,4.6,-,N/A,,Scattered Clouds,210,2013-04-01 04:55:00
1:15 AM,44.6,42.8,93,29.77,10.0,Calm,Calm,-,N/A,,Clear,0,2013-04-01 05:15:00
1:35 AM,42.8,42.8,100,29.78,7.0,Calm,Calm,-,N/A,,Scattered Clouds,0,2013-04-01 05:35:00
1:55 AM,42.8,42.8,100,29.78,10.0,SW,4.6,-,N/A,,Scattered Clouds,220,2013-04-01 05:55:00
2:15 AM,44.6,41.0,87,29.77,10.0,West,4.6,-,N/A,,Clear,260,2013-04-01 06:15:00
2:35 AM,44.6,37.4,76,29.77,10.0,West,10.4,-,N/A,,Clear,270,2013-04-01 06:35:00
2:55 AM,39.2,35.6,87,29.78,10.0,South,3.5,-,N/A,,Clear,180,2013-04-01 06:55:00
3:15 AM,37.4,37.4,100,29.78,10.0,SSW,5.8,-,N/A,,Clear,200,2013-04-01 07:15:00
3:35 AM,42.8,39.2,87,29.78,10.0,SSW,5.8,-,N/A,,Clear,210,2013-04-01 07:35:00
3:55 AM,44.6,37.4,76,29.78,10.0,SW,5.8,-,N/A,,Clear,230,2013-04-01 07:55:00
4:15 AM,44.6,39.2,81,29.78,10.0,SW,4.6,-,N/A,,Clear,220,2013-04-01 08:15:00
4:35 AM,42.8,39.2,87,29.77,10.0,Calm,Calm,-,N/A,,Clear,0,2013-04-01 08:35:00
4:55 AM,42.8,37.4,81,29.75,10.0,SSW,4.6,-,N/A,,Clear,200,2013-04-01 08:55:00
5:15 AM,42.8,37.4,81,29.76,10.0,SW,4.6,-,N/A,,Clear,230,2013-04-01 09:15:00
5:35 AM,41.0,37.4,87,29.76,10.0,SSW,4.6,-,N/A,,Scattered Clouds,210,2013-04-01 09:35:00
5:55 AM,41.0,35.6,81,29.76,10.0,South,4.6,-,N/A,,Mostly Cloudy,190,2013-04-01 09:55:00
6:15 AM,41.0,37.4,87,29.76,10.0,SSW,5.8,-,N/A,,Mostly Cloudy,200,2013-04-01 10:15:00
6:35 AM,42.8,35.6,76,29.76,10.0,SSW,6.9,-,N/A,,Scattered Clouds,210,2013-04-01 10:35:00
6:55 AM,42.8,35.6,76,29.76,10.0,SW,6.9,-,N/A,,Mostly Cloudy,230,2013-04-01 10:55:00
7:15 AM,44.6,35.6,71,29.77,10.0,SW,8.1,-,N/A,,Mostly Cloudy,230,2013-04-01 11:15:00
7:35 AM,44.6,35.6,71,29.77,10.0,SW,6.9,-,N/A,,Scattered Clouds,230,2013-04-01 11:35:00
7:55 AM,42.8,37.4,81,29.77,10.0,SW,5.8,-,N/A,,Clear,220,2013-04-01 11:55:00
8:15 AM,44.6,37.4,76,29.78,10.0,SW,6.9,-,N/A,,Clear,230,2013-04-01 12:15:00
8:35 AM,46.4,39.2,76,29.77,10.0,SSW,8.1,-,N/A,,Scattered Clouds,210,2013-04-01 12:35:00
8:55 AM,50.0,41.0,71,29.77,10.0,SW,11.5,17.3,N/A,,Mostly Cloudy,220,2013-04-01 12:55:00
9:15 AM,50.0,41.0,71,29.77,10.0,SW,11.5,20.7,N/A,,Overcast,230,2013-04-01 13:15:00
9:35 AM,50.0,41.0,71,29.77,10.0,SW,10.4,-,N/A,,Mostly Cloudy,220,2013-04-01 13:35:00
9:55 AM,51.8,42.8,71,29.77,10.0,SW,11.5,16.1,N/A,,Mostly Cloudy,220,2013-04-01 13:55:00
10:15 AM,53.6,42.8,67,29.77,10.0,WSW,6.9,-,N/A,,Overcast,240,2013-04-01 14:15:00
10:35 AM,53.6,41.0,62,29.78,10.0,West,10.4,-,N/A,,Overcast,270,2013-04-01 14:35:00
10:55 AM,53.6,42.8,67,29.78,10.0,West,9.2,-,N/A,,Mostly Cloudy,270,2013-04-01 14:55:00
11:15 AM,55.4,42.8,63,29.77,10.0,WSW,9.2,-,N/A,,Mostly Cloudy,250,2013-04-01 15:15:00
11:35 AM,55.4,42.8,63,29.77,10.0,West,12.7,19.6,N/A,,Mostly Cloudy,270,2013-04-01 15:35:00
11:55 AM,57.2,41.0,55,29.76,10.0,West,18.4,23.0,N/A,,Mostly Cloudy,260,2013-04-01 15:55:00
12:15 PM,55.4,37.4,51,29.77,10.0,West,19.6,26.5,N/A,,Mostly Cloudy,260,2013-04-01 16:15:00
12:35 PM,55.4,35.6,47,29.77,10.0,West,21.9,25.3,N/A,,Mostly Cloudy,270,2013-04-01 16:35:00
12:55 PM,53.6,37.4,54,29.78,10.0,NW,23.0,28.8,N/A,,Overcast,320,2013-04-01 16:55:00
1:15 PM,53.6,41.0,62,29.78,10.0,WNW,19.6,26.5,N/A,,Scattered Clouds,300,2013-04-01 17:15:00
1:35 PM,53.6,41.0,62,29.78,10.0,WNW,23.0,33.4,N/A,,Scattered Clouds,300,2013-04-01 17:35:00
1:55 PM,51.8,39.2,62,29.79,10.0,NW,19.6,32.2,N/A,,Scattered Clouds,310,2013-04-01 17:55:00
2:15 PM,51.8,39.2,62,29.80,10.0,NW,25.3,34.5,N/A,,Scattered Clouds,310,2013-04-01 18:15:00
2:35 PM,50.0,37.4,62,29.80,10.0,NW,27.6,38.0,N/A,,Scattered Clouds,310,2013-04-01 18:35:00
2:55 PM,50.0,37.4,62,29.81,10.0,NW,26.5,32.2,N/A,,Scattered Clouds,310,2013-04-01 18:55:00
3:15 PM,50.0,35.6,58,29.81,10.0,WNW,28.8,35.7,N/A,,Scattered Clouds,300,2013-04-01 19:15:00
3:35 PM,50.0,35.6,58,29.82,10.0,WNW,24.2,31.1,N/A,,Clear,300,2013-04-01 19:35:00
3:55 PM,50.0,33.8,54,29.83,10.0,WNW,26.5,35.7,N/A,,Scattered Clouds,290,2013-04-01 19:55:00
4:15 PM,50.0,32.0,50,29.84,10.0,WNW,23.0,34.5,N/A,,Scattered Clouds,290,2013-04-01 20:15:00
4:35 PM,50.0,32.0,50,29.84,10.0,WNW,23.0,33.4,N/A,,Clear,290,2013-04-01 20:35:00
4:55 PM,50.0,32.0,50,29.85,10.0,WNW,24.2,31.1,N/A,,Scattered Clouds,300,2013-04-01 20:55:00
5:15 PM,44.6,32.0,61,29.87,10.0,NNW,16.1,24.2,N/A,,Mostly Cloudy,330,2013-04-01 21:15:00
5:35 PM,44.6,32.0,61,29.87,10.0,NW,16.1,19.6,N/A,,Overcast,310,2013-04-01 21:35:00
5:55 PM,44.6,32.0,61,29.88,10.0,NW,12.7,25.3,N/A,,Overcast,310,2013-04-01 21:55:00
6:15 PM,44.6,32.0,61,29.88,10.0,WNW,15.0,21.9,N/A,,Overcast,290,2013-04-01 22:15:00
6:35 PM,44.6,28.4,53,29.89,10.0,West,19.6,24.2,N/A,,Overcast,280,2013-04-01 22:35:00
6:55 PM,44.6,30.2,57,29.90,10.0,WNW,19.6,24.2,N/A,,Mostly Cloudy,300,2013-04-01 22:55:00
7:15 PM,42.8,28.4,57,29.90,10.0,WNW,13.8,23.0,N/A,,Scattered Clouds,300,2013-04-01 23:15:00
7:35 PM,41.0,28.4,61,29.90,10.0,WNW,15.0,20.7,N/A,,Clear,300,2013-04-01 23:35:00
7:55 PM,41.0,26.6,57,29.91,10.0,WNW,11.5,-,N/A,,Scattered Clouds,290,2013-04-01 23:55:00
8:15 PM,41.0,28.4,61,29.92,10.0,WNW,8.1,-,N/A,,Mostly Cloudy,300,2013-04-02 00:15:00
8:35 PM,41.0,28.4,61,29.92,10.0,WNW,11.5,17.3,N/A,,Scattered Clouds,300,2013-04-02 00:35:00
8:55 PM,41.0,26.6,57,29.93,10.0,WNW,12.7,18.4,N/A,,Mostly Cloudy,300,2013-04-02 00:55:00
9:15 PM,41.0,26.6,57,29.93,10.0,NNW,4.6,-,N/A,,Scattered Clouds,330,2013-04-02 01:15:00
9:35 PM,41.0,24.8,53,29.94,10.0,NW,12.7,19.6,N/A,,Mostly Cloudy,310,2013-04-02 01:35:00
9:55 PM,41.0,24.8,53,29.96,10.0,NW,10.4,-,N/A,,Mostly Cloudy,310,2013-04-02 01:55:00
10:15 PM,39.2,23.0,52,29.97,10.0,NNW,4.6,-,N/A,,Scattered Clouds,340,2013-04-02 02:15:00
10:35 PM,39.2,21.2,49,29.97,10.0,NW,6.9,-,N/A,,Clear,320,2013-04-02 02:35:00
10:55 PM,37.4,21.2,52,29.98,10.0,NW,8.1,-,N/A,,Clear,320,2013-04-02 02:55:00
11:15 PM,35.6,21.2,56,29.98,10.0,NW,3.5,-,N/A,,Mostly Cloudy,320,2013-04-02 03:15:00
11:35 PM,37.4,21.2,52,29.99,10.0,NNW,3.5,-,N/A,,Scattered Clouds,330,2013-04-02 03:35:00
11:55 PM,35.6,19.4,52,29.99,10.0,NW,8.1,-,N/A,,Scattered Clouds,310,2013-04-02 03:55:00